FW8740 Weather Reports


Display with metric or nautical units.
time (UTC)temp
F
wind
direction
speed
MPH
gust
MPH
rain 1hr
in
rain 24hr
in
rain mn
in
humidity
%
barometer
mb
20260510041051 51 110 0.0 0.0 0.00 0.00 0.00 95 1014.5
20260510040548 51 109 0.0 0.0 0.00 0.00 0.00 95 1014.5
20260510040044 51 109 0.0 0.0 0.00 0.00 0.00 95 1014.2
20260510035540 51 109 0.0 0.0 0.00 0.65 0.65 95 1014.2
20260510035040 51 109 0.0 0.0 0.00 0.65 0.65 95 1014.1
20260510034539 51 110 0.0 0.0 0.00 0.65 0.65 95 1014.2
20260510034035 51 110 0.0 0.0 0.00 0.65 0.65 95 1014.1
20260510033531 51 110 0.0 0.0 0.00 0.65 0.65 95 1014.0
20260510033029 51 109 0.0 0.0 0.00 0.65 0.65 94 1014.2
20260510032525 51 109 0.0 0.0 0.00 0.65 0.65 94 1014.2
20260510032020 51 106 0.0 0.0 0.00 0.65 0.65 94 1014.2
20260510031516 51 106 0.0 0.0 0.00 0.65 0.65 94 1014.2
20260510031012 51 106 0.0 0.0 0.00 0.65 0.65 94 1014.0
20260510030508 52 105 0.0 0.0 0.00 0.65 0.65 94 1014.0
20260510030005 52 105 0.0 0.0 0.00 0.65 0.65 94 1014.1
20260510025502 52 106 0.0 0.0 0.00 0.65 0.65 94 1014.1
20260510025000 52 106 0.0 0.0 0.00 0.65 0.65 94 1014.6
20260510024456 52 106 0.0 0.0 0.00 0.65 0.65 94 1014.4
20260510023952 52 108 0.0 0.0 0.00 0.65 0.65 94 1014.2
20260510023448 52 108 0.0 0.0 0.00 0.65 0.65 94 1014.3
20260510022945 52 107 0.0 0.0 0.00 0.65 0.65 94 1014.4
20260510022445 52 107 0.0 0.0 0.00 0.65 0.65 94 1014.5
20260510021944 52 106 0.0 0.0 0.00 0.65 0.65 94 1014.3
20260510021442 52 106 0.0 0.0 0.00 0.65 0.65 94 1014.4
20260510020938 52 106 0.0 0.0 0.00 0.65 0.65 94 1014.2
20260510020433 52 105 0.0 0.0 0.00 0.65 0.65 94 1014.3
20260510015929 52 105 0.0 0.0 0.00 0.65 0.65 94 1014.2
20260510015425 53 119 0.0 1.0 0.00 0.65 0.65 94 1014.3
20260510014920 53 122 0.0 1.0 0.00 0.65 0.65 94 1014.1
20260510014418 53 105 1.0 1.0 0.00 0.65 0.65 94 1014.0
20260510013914 53 113 0.0 0.0 0.00 0.65 0.65 94 1014.0
20260510013409 53 111 0.0 1.0 0.00 0.65 0.65 94 1014.0
20260510012905 53 113 0.0 0.0 0.00 0.65 0.65 94 1014.1
20260510012400 53 113 0.0 0.0 0.00 0.65 0.65 94 1013.9
20260510011854 53 113 0.0 0.0 0.00 0.65 0.65 94 1013.8
20260510011350 53 117 0.0 0.0 0.00 0.65 0.65 94 1013.9
20260510010846 52 112 0.0 0.0 0.00 0.65 0.65 94 1013.8
20260510010344 52 113 0.0 0.0 0.00 0.65 0.65 94 1013.9
20260510005840 52 117 0.0 0.0 0.00 0.65 0.65 94 1013.5
20260510005337 52 117 0.0 0.0 0.00 0.65 0.65 94 1013.6
20260510004834 52 118 0.0 0.0 0.00 0.65 0.65 94 1013.8
20260510004332 52 116 0.0 0.0 0.00 0.65 0.65 94 1013.4
20260510003829 53 117 0.0 0.0 0.00 0.65 0.65 94 1013.5
20260510003326 53 117 0.0 0.0 0.00 0.65 0.65 94 1013.9
20260510002825 53 117 0.0 0.0 0.00 0.65 0.65 94 1013.4
20260510002322 53 117 0.0 0.0 0.00 0.65 0.65 94 1013.5
20260510001819 53 117 0.0 0.0 0.00 0.65 0.65 94 1013.7
20260510001317 53 117 0.0 0.0 0.00 0.65 0.65 94 1013.6
20260510000812 53 122 0.0 0.0 0.00 0.65 0.65 94 1013.5
20260510000311 53 123 0.0 0.0 0.00 0.65 0.65 94 1013.5
20260509235807 53 121 0.0 0.0 0.00 0.65 0.65 94 1013.3
20260509235306 53 121 0.0 0.0 0.00 0.65 0.65 94 1013.2
20260509234759 53 118 0.0 0.0 0.00 0.65 0.65 94 1013.3
20260509234256 54 120 0.0 0.0 0.00 0.65 0.65 93 1013.3
20260509233755 54 119 0.0 0.0 0.00 0.65 0.65 93 1013.5
20260509233252 54 122 0.0 1.0 0.00 0.65 0.65 93 1013.4
20260509232748 54 134 1.0 1.0 0.00 0.65 0.65 93 1013.4
20260509232245 54 118 0.0 0.0 0.00 0.65 0.65 93 1013.5
20260509231741 54 118 0.0 1.0 0.00 0.65 0.65 93 1013.6
20260509231239 54 114 0.0 0.0 0.00 0.65 0.65 93 1013.8
20260509230736 54 114 0.0 0.0 0.00 0.65 0.65 93 1013.8
20260509230233 54 104 0.0 0.0 0.00 0.65 0.65 93 1013.6
20260509225728 54 113 0.0 1.0 0.00 0.65 0.65 93 1013.5
20260509225224 54 120 0.0 1.0 0.00 0.65 0.65 93 1013.6
20260509224720 54 137 1.0 2.0 0.00 0.65 0.65 93 1013.6
20260509224217 54 139 1.0 2.0 0.00 0.65 0.65 93 1013.7
20260509223714 54 113 0.0 1.0 0.12 0.65 0.65 93 1013.8
20260509223211 54 102 0.0 1.0 0.31 0.65 0.65 93 1013.9
20260509222708 54 96 2.0 2.0 0.24 0.63 0.63 93 1014.0
20260509222203 54 178 2.0 2.0 0.17 0.60 0.60 93 1013.9
20260509221659 54 157 2.0 2.0 0.12 0.58 0.58 93 1014.0
20260509221155 54 105 0.0 0.0 0.12 0.57 0.57 93 1014.1
20260509220652 54 112 0.0 1.0 0.17 0.56 0.56 92 1014.1
20260509220148 54 113 0.0 1.0 0.26 0.55 0.55 92 1014.1
20260509215644 54 117 0.0 1.0 0.31 0.53 0.53 92 1014.4
20260509215141 55 118 0.0 0.0 0.28 0.51 0.51 92 1014.4
20260509214638 55 95 0.0 1.0 0.12 0.48 0.48 92 1014.4
20260509214135 55 98 0.0 1.0 0.07 0.46 0.46 92 1014.1
20260509213631 55 117 0.0 2.0 0.05 0.45 0.45 92 1013.8
20260509213126 55 100 0.0 0.0 0.05 0.45 0.45 92 1014.5
20260509212625 55 110 0.0 0.0 0.00 0.44 0.44 92 1014.5
20260509212116 55 110 0.0 0.0 0.00 0.44 0.44 92 1014.1
20260509211612 55 111 0.0 0.0 0.00 0.44 0.44 92 1014.1
20260509211108 55 111 0.0 0.0 0.00 0.44 0.44 92 1014.3
20260509210605 55 109 0.0 0.0 0.07 0.44 0.44 92 1014.3
20260509205556 55 110 0.0 0.0 0.05 0.43 0.43 91 1014.5
20260509205051 56 110 0.0 0.0 0.00 0.42 0.42 91 1014.3
20260509204548 56 110 0.0 0.0 0.00 0.42 0.42 91 1014.7
20260509204044 56 111 0.0 0.0 0.00 0.42 0.42 91 1014.7
20260509203540 56 114 0.0 0.0 0.07 0.42 0.42 91 1014.5
20260509203039 56 114 0.0 0.0 0.14 0.42 0.42 91 1014.4
20260509202533 56 117 0.0 0.0 0.07 0.41 0.41 91 1014.5
20260509202029 56 135 0.0 1.0 0.00 0.40 0.40 91 1014.5
20260509201524 55 117 0.0 0.0 0.00 0.40 0.40 90 1014.7
20260509201022 55 116 0.0 1.0 0.00 0.40 0.40 90 1014.7
20260509200521 55 110 0.0 1.0 0.00 0.40 0.40 90 1014.5
20260509200018 56 138 1.0 1.0 0.00 0.40 0.40 90 1014.5
20260509195513 56 92 0.0 1.0 0.00 0.40 0.40 90 1014.2
20260509195008 56 104 0.0 1.0 0.00 0.40 0.40 90 1013.9
20260509194504 56 52 1.0 2.0 0.00 0.40 0.40 90 1013.8
20260509194001 56 100 1.0 1.0 0.05 0.40 0.40 89 1013.8
20260509193501 56 100 0.0 2.0 0.12 0.40 0.40 89 1013.9
20260509192957 56 125 0.0 1.0 0.07 0.39 0.39 89 1014.5
20260509192454 56 128 0.0 1.0 0.05 0.38 0.38 89 1014.4
20260509191949 56 108 0.0 0.0 0.12 0.38 0.38 88 1014.5
20260509191444 56 107 0.0 0.0 0.07 0.37 0.37 88 1014.6
20260509190940 56 108 0.0 0.0 0.05 0.36 0.36 88 1014.7
20260509190438 56 109 0.0 0.0 0.07 0.35 0.35 88 1014.9
20260509185935 56 111 0.0 0.0 0.12 0.35 0.35 87 1014.6
20260509185432 56 114 0.0 0.0 0.12 0.34 0.34 87 1014.8
20260509184929 56 119 0.0 0.0 0.12 0.33 0.33 87 1014.8
20260509184427 56 112 0.0 1.0 0.17 0.32 0.32 87 1014.8
20260509183923 56 147 1.0 1.0 0.78 0.31 0.31 86 1015.0
20260509183417 56 75 0.0 2.0 0.97 0.28 0.28 86 1015.2
20260509182914 56 112 0.0 1.0 0.42 0.17 0.17 85 1014.9
20260509182411 57 177 1.0 1.0 0.40 0.12 0.12 84 1014.8
20260509181908 57 126 1.0 1.0 0.47 0.10 0.10 82 1014.6
20260509181406 59 68 0.0 2.0 0.19 0.05 0.05 80 1014.6
20260509180903 59 67 1.0 2.0 0.00 0.02 0.02 78 1014.1
20260509180358 59 167 1.0 2.0 0.00 0.02 0.02 77 1013.9
20260509175855 60 130 2.0 5.0 0.00 0.02 0.02 76 1013.7
20260509175351 60 243 2.0 3.0 0.00 0.02 0.02 75 1013.9
20260509174848 61 220 3.0 6.0 0.00 0.02 0.02 74 1014.0
20260509174344 62 122 1.0 2.0 0.00 0.02 0.02 73 1013.6
20260509173840 63 156 1.0 2.0 0.00 0.02 0.02 72 1013.6
20260509173335 64 99 1.0 2.0 0.00 0.02 0.02 72 1013.5
20260509172831 63 186 2.0 2.0 0.00 0.02 0.02 71 1013.6
20260509172328 63 126 1.0 3.0 0.00 0.02 0.02 70 1013.5
20260509171824 64 328 3.0 9.0 0.00 0.02 0.02 69 1013.6
20260509171320 65 325 1.0 2.0 0.00 0.02 0.02 70 1013.7
20260509170817 64 16 1.0 3.0 0.00 0.02 0.02 70 1014.0
20260509170313 63 130 1.0 7.0 0.00 0.02 0.02 70 1014.1
20260509165812 63 66 2.0 6.0 0.00 0.02 0.02 71 1014.0
20260509165307 64 348 4.0 9.0 0.00 0.02 0.02 71 1014.2
20260509164803 64 137 1.0 6.0 0.00 0.02 0.02 72 1014.0
20260509164300 64 202 2.0 2.0 0.00 0.02 0.02 73 1014.2
20260509163756 63 99 2.0 7.0 0.00 0.02 0.02 74 1014.1
20260509163253 63 65 2.0 2.0 0.00 0.02 0.02 76 1014.6
20260509162751 63 105 2.0 5.0 0.00 0.02 0.02 77 1014.3
20260509162245 63 56 1.0 3.0 0.00 0.02 0.02 78 1014.7
20260509161742 63 9 3.0 5.0 0.00 0.02 0.02 80 1014.7
20260509161237 62 181 0.0 1.0 0.00 0.02 0.02 81 1014.9
20260509160733 61 62 0.0 3.0 0.00 0.02 0.02 82 1015.2
20260509160230 61 137 0.0 2.0 0.00 0.02 0.02 83 1015.3
20260509155724 61 122 1.0 2.0 0.00 0.02 0.02 84 1015.3
20260509155222 60 118 0.0 0.0 0.00 0.02 0.02 85 1015.0
20260509154717 60 117 0.0 2.0 0.00 0.02 0.02 85 1015.2
20260509154214 60 351 2.0 2.0 0.00 0.02 0.02 86 1015.3
20260509153712 59 130 1.0 1.0 0.00 0.02 0.02 86 1015.4
20260509153208 58 110 0.0 0.0 0.00 0.02 0.02 87 1015.0
20260509152704 57 120 0.0 1.0 0.00 0.02 0.02 87 1015.2
20260509152201 57 75 1.0 2.0 0.00 0.02 0.02 87 1015.2
20260509151658 57 103 0.0 0.0 0.00 0.02 0.02 88 1015.6
20260509151155 57 28 1.0 2.0 0.00 0.02 0.02 88 1015.4
20260509150653 57 133 1.0 1.0 0.00 0.02 0.02 89 1015.5
20260509150151 56 107 0.0 1.0 0.00 0.02 0.02 89 1015.3
20260509145647 56 179 1.0 2.0 0.00 0.02 0.02 89 1015.4
20260509145142 56 128 0.0 2.0 0.00 0.02 0.02 90 1015.3
20260509144639 56 150 1.0 1.0 0.00 0.02 0.02 90 1015.1
20260509144136 56 173 1.0 2.0 0.00 0.02 0.02 90 1015.7
20260509143633 56 129 1.0 2.0 0.00 0.02 0.02 90 1015.5
20260509143131 56 118 0.0 1.0 0.00 0.02 0.02 90 1015.4
20260509142626 55 159 1.0 3.0 0.00 0.02 0.02 91 1015.4
20260509142123 56 130 1.0 1.0 0.00 0.02 0.02 91 1015.3
20260509141619 55 134 0.0 2.0 0.00 0.02 0.02 91 1015.2
20260509141115 56 134 1.0 3.0 0.00 0.02 0.02 91 1015.3
20260509140612 56 130 1.0 3.0 0.00 0.02 0.02 91 1015.3
20260509140110 56 226 2.0 2.0 0.00 0.02 0.02 91 1015.3
20260509135607 56 141 0.0 1.0 0.00 0.02 0.02 92 1015.2
20260509135105 55 102 0.0 1.0 0.00 0.02 0.02 92 1015.2
20260509134601 54 141 1.0 2.0 0.00 0.02 0.02 92 1015.5
20260509134059 54 113 0.0 2.0 0.00 0.02 0.02 92 1015.4
20260509133556 53 142 1.0 1.0 0.00 0.02 0.02 92 1015.3
20260509133053 53 128 0.0 2.0 0.00 0.02 0.02 92 1015.3
20260509132552 53 120 1.0 2.0 0.00 0.02 0.02 92 1015.8
20260509132050 53 123 0.0 1.0 0.00 0.02 0.02 93 1016.0
20260509131545 52 122 0.0 3.0 0.00 0.02 0.02 92 1015.3
20260509131042 52 138 0.0 2.0 0.00 0.02 0.02 92 1015.4
20260509130538 51 126 1.0 1.0 0.00 0.02 0.02 92 1015.9
20260509130035 51 99 0.0 1.0 0.00 0.02 0.02 92 1015.7
20260509125531 51 118 0.0 2.0 0.00 0.02 0.02 92 1015.9
20260509125028 51 290 2.0 2.0 0.00 0.02 0.02 92 1015.7
20260509124525 51 130 0.0 2.0 0.00 0.02 0.02 92 1015.5
20260509124022 51 84 1.0 1.0 0.00 0.02 0.02 92 1015.5
20260509123520 50 125 1.0 2.0 0.00 0.02 0.02 92 1015.6
20260509123016 50 155 1.0 2.0 0.00 0.02 0.02 92 1015.7
20260509122512 50 123 1.0 3.0 0.00 0.02 0.02 92 1015.9
20260509122009 50 148 1.0 2.0 0.00 0.02 0.02 92 1015.8
20260509121506 50 146 1.0 2.0 0.00 0.02 0.02 92 1015.7
20260509121004 50 119 1.0 1.0 0.00 0.02 0.02 92 1015.8
20260509120502 50 147 0.0 2.0 0.00 0.02 0.02 92 1015.9
20260509120000 50 128 1.0 1.0 0.00 0.02 0.02 92 1016.1
20260509115456 50 141 1.0 2.0 0.00 0.02 0.02 92 1016.1
20260509114954 50 119 0.0 0.0 0.00 0.02 0.02 92 1016.1
20260509114452 50 122 0.0 1.0 0.00 0.02 0.02 92 1016.1
20260509113951 50 147 0.0 2.0 0.00 0.02 0.02 92 1016.6
20260509113448 50 105 0.0 2.0 0.00 0.02 0.02 92 1016.0
20260509112945 49 117 0.0 1.0 0.00 0.02 0.02 92 1016.1
20260509112443 49 152 2.0 2.0 0.00 0.02 0.02 92 1015.9
20260509111939 49 121 1.0 2.0 0.00 0.02 0.02 92 1016.0
20260509111436 49 132 0.0 2.0 0.00 0.02 0.02 92 1016.1
20260509110934 49 127 0.0 1.0 0.00 0.02 0.02 92 1015.8
20260509110429 49 128 0.0 2.0 0.00 0.02 0.02 92 1016.0
20260509105928 49 127 1.0 2.0 0.00 0.02 0.02 92 1015.7
20260509105426 49 113 0.0 0.0 0.00 0.02 0.02 92 1015.9
20260509104923 49 111 0.0 0.0 0.00 0.02 0.02 92 1015.9
20260509104420 49 111 0.0 0.0 0.00 0.02 0.02 92 1015.7
20260509103917 49 111 0.0 0.0 0.00 0.02 0.02 92 1015.7
20260509103414 49 112 0.0 0.0 0.00 0.02 0.02 92 1015.6
20260509102913 48 111 0.0 0.0 0.00 0.02 0.02 91 1015.3
20260509102410 48 111 0.0 0.0 0.00 0.02 0.02 92 1015.6
20260509101905 48 112 0.0 0.0 0.00 0.02 0.02 91 1015.5
20260509101401 48 112 0.0 0.0 0.00 0.02 0.02 91 1015.5
20260509100859 48 112 0.0 0.0 0.00 0.02 0.02 91 1015.4
20260509100356 48 112 0.0 0.0 0.00 0.02 0.02 91 1015.4
20260509095853 48 109 0.0 0.0 0.00 0.02 0.02 91 1015.6
20260509095350 48 108 0.0 0.0 0.00 0.02 0.02 91 1015.6
20260509094847 48 101 0.0 0.0 0.00 0.02 0.02 91 1015.6
20260509094344 48 94 0.0 0.0 0.00 0.02 0.02 91 1015.6
20260509093842 48 93 0.0 1.0 0.00 0.02 0.02 91 1015.4
20260509093338 48 104 0.0 0.0 0.00 0.02 0.02 91 1015.4
20260509092837 48 93 0.0 0.0 0.00 0.02 0.02 91 1015.3
20260509092335 48 92 0.0 1.0 0.00 0.02 0.02 91 1015.4
20260509091832 48 110 0.0 0.0 0.00 0.02 0.02 91 1015.7
20260509091329 48 115 0.0 0.0 0.00 0.02 0.02 91 1015.5
20260509090826 48 115 0.0 0.0 0.00 0.02 0.02 91 1015.5
20260509090324 48 116 0.0 0.0 0.00 0.02 0.02 91 1015.6
20260509085821 48 111 0.0 0.0 0.00 0.02 0.02 91 1015.4
20260509085318 48 111 0.0 0.0 0.00 0.02 0.02 91 1015.6
20260509084814 48 111 0.0 0.0 0.00 0.02 0.02 91 1015.5
20260509084311 48 111 0.0 0.0 0.00 0.02 0.02 91 1015.6
20260509083809 48 112 0.0 0.0 0.00 0.02 0.02 91 1015.5
20260509083306 48 112 0.0 1.0 0.00 0.02 0.02 90 1015.4
20260509082802 48 112 0.0 0.0 0.00 0.02 0.02 90 1015.7
20260509082259 48 111 0.0 0.0 0.00 0.02 0.02 90 1015.8
20260509081756 48 112 1.0 1.0 0.00 0.02 0.02 90 1015.7
20260509081253 48 111 0.0 1.0 0.00 0.02 0.02 90 1015.8
20260509080752 48 105 0.0 0.0 0.00 0.02 0.02 90 1015.7
20260509080249 48 103 0.0 0.0 0.00 0.02 0.02 90 1015.7
20260509075747 48 105 0.0 0.0 0.00 0.02 0.02 90 1015.7
20260509075244 48 104 0.0 0.0 0.00 0.02 0.02 90 1015.7
20260509074741 48 104 0.0 0.0 0.00 0.02 0.02 90 1015.5
20260509074239 48 103 0.0 0.0 0.00 0.02 0.02 90 1015.7
20260509073734 48 108 0.0 0.0 0.00 0.02 0.02 89 1015.8
20260509073231 48 108 0.0 0.0 0.00 0.02 0.02 89 1015.8
20260509072728 48 105 0.0 0.0 0.00 0.02 0.02 89 1015.8
20260509072225 48 104 0.0 0.0 0.07 0.02 0.02 89 1015.4
20260509071721 48 104 0.0 0.0 0.00 0.01 0.01 89 1015.3
20260509071219 47 104 0.0 0.0 0.00 0.01 0.01 89 1015.6
20260509070716 48 105 0.0 0.0 0.00 0.01 0.01 89 1015.3
20260509070212 48 104 0.0 0.0 0.00 0.01 0.01 89 1015.6
20260509065708 48 107 0.0 0.0 0.00 0.01 0.01 88 1015.7
20260509065204 47 108 0.0 0.0 0.00 0.01 0.01 88 1015.4
20260509064701 47 108 0.0 0.0 0.00 0.01 0.01 88 1015.5
20260509064159 47 107 0.0 0.0 0.00 0.01 0.01 88 1015.7
20260509063656 47 115 0.0 1.0 0.00 0.01 0.01 88 1015.4
20260509063152 47 97 0.0 0.0 0.00 0.01 0.01 88 1015.7
20260509062649 47 94 0.0 1.0 0.00 0.01 0.01 88 1015.5
20260509062146 48 108 0.0 1.0 0.00 0.01 0.01 88 1015.8
20260509061643 47 105 0.0 0.0 0.00 0.01 0.01 87 1015.9
20260509061141 48 97 0.0 1.0 0.00 0.01 0.01 87 1015.9
20260509060638 47 99 0.0 0.0 0.00 0.01 0.01 87 1016.1
20260509060134 47 83 0.0 0.0 0.05 0.01 0.01 87 1016.1
20260509055630 47 83 0.0 0.0 0.05 0.01 0.01 87 1016.2
20260509055126 47 83 0.0 1.0 0.00 0.00 0.00 87 1016.3
20260509054623 47 82 1.0 1.0 0.00 0.00 0.00 87 1016.2
20260509054120 47 97 0.0 0.0 0.00 0.00 0.00 86 1016.0
20260509053619 47 97 0.0 0.0 0.00 0.00 0.00 86 1016.1
20260509053115 47 97 0.0 0.0 0.00 0.00 0.00 86 1016.0
20260509052613 47 97 0.0 0.0 0.00 0.00 0.00 86 1016.2
20260509052111 47 96 0.0 1.0 0.00 0.00 0.00 86 1016.4
20260509051608 47 110 0.0 0.0 0.00 0.00 0.00 86 1016.6
20260509051105 47 111 0.0 1.0 0.00 0.00 0.00 86 1015.8
20260509050602 47 111 0.0 0.0 0.00 0.00 0.00 86 1016.1
20260509050058 47 105 0.0 0.0 0.00 0.00 0.00 85 1016.0
20260509045556 47 104 0.0 0.0 0.00 0.00 0.00 85 1016.0
20260509045053 47 104 0.0 0.0 0.00 0.00 0.00 85 1016.0
20260509044550 47 104 0.0 0.0 0.00 0.00 0.00 84 1016.1
20260509044048 47 104 0.0 0.0 0.00 0.00 0.00 84 1016.0
20260509043544 47 104 0.0 0.0 0.00 0.00 0.00 84 1016.1
20260509043039 47 104 0.0 0.0 0.00 0.00 0.00 83 1016.0
20260509042536 48 104 0.0 0.0 0.00 0.00 0.00 83 1016.6
20260509042032 48 110 0.0 0.0 0.00 0.00 0.00 82 1016.1
20260509041529 49 111 0.0 0.0 0.00 0.00 0.00 82 1016.2